COSMOS 1953

Last updated on Wed Sep 17 2025 00:02:14 GMT+0000 (Coordinated Universal Time)

1 19210U 88050A 25259.17601768 .00007412 00000+0 29196-3 0 9996 2 19210 82.5120 333.3612 0012388 26.0812 334.1047 15.25368994 11157
UTC large
Height (km)
Speed (km/s)
/
Latitude / Longitude
Inclination (degrees)
Orbital Period (minutes)
Azimuth
Elevation
Range (km)
Doppler Factor

Next 0 passes for location: London (51.5072 / 0.1276)

Sorry there are no passes over London.